www.pogodaiklimat.ru

Погода и климат >> Архив погоды >> Таиланд >> Lop Buri


ПОГОДА в Lop Buri

  • Прогноз погоды в Lop Buri
  • Монитор погоды в Lop Buri
  • Климат города

АРХИВ ПОГОДЫ в Lop Buri

Время (UTC), дата Ветер
(напр.,м/с)
 
Видим.   Явления Облачность Т
(С)
Тd
(С)
f
(%)
Тe
(С)
Тes
(С)
Комфортность P
(гПа)
Po
(гПа)
Тmin
(С)
Tmax
(С)
R
(мм)
R24
(мм)
S
(см)
00 18.05 ЮВ 2 9000 м дымка 4/0
[Cs]
+27.8 +25.2 86 +40 +42 очень
душно
1007.2 1005.9 +27.1
03 18.05 Ю 2 9000 м дымка 6/6 600 м
[Cu med, cong Ac lent Cs]
+32.5 +26.2 69 +48 +55 опасность
перегрева
1009.0 1007.8
06 18.05 Ю 2 9000 м мгла 5/5 600 м
[Cu med, cong Ac lent Cs]
+34.5 +24.6 56 +47 +58 опасность
перегрева
1006.4 1005.1
09 18.05 Ю 4 9000 м мгла 8/5 600 м
[Cu med, cong Ac lent Cs]
+34.0 +24.5 58 +47 +49 опасность
перегрева
1004.7 1003.4
12 18.05 Ю 3 8000 м зарница 8/3 600 м
[Cb cap Ac und Cs]
+32.2 +24.7 65 +45 +45 опасность
перегрева
1005.0 1003.7 +36.3
15 18.05 ЮЗ 6 6000 м гроза, ливневой дождь 10/8 600 м
[Cb cap Ac As Cs]
+24.5 +23.0 91 +32 +32 очень
душно
1009.0 1007.7 2
18 18.05 штиль 0 6000 м слабый дождь {гроза} 10/8 600 м
[Sc Ac As Cs]
+25.2 +23.7 91 +34 +34 очень
душно
1007.8 1006.5 5
21 18.05 штиль 0 6000 м дымка {дождь} 10/4 600 м
[Sc Ac As Cs]
+25.3 +24.1 93 +35 +35 очень
душно
1006.6 1005.3 0.2
00 19.05 штиль 0 8000 м дымка {дождь} 9/6 600 м
[Sc Ac und Cs]
+25.8 +24.6 93 +36 +37 очень
душно
1007.5 1006.2 +24.6
03 19.05 Ю 6 10 км дымка 5/3 600 м
[Sc Ac lent Cs]
+30.6 +24.9 72 +44 +48 опасность
перегрева
1009.0 1007.7
06 19.05 Ю 6 12 км 6/4 600 м
[Cu med, cong Ac lent Cs]
+33.9 +24.9 59 +47 +51 опасность
перегрева
1006.6 1005.3
09 19.05 штиль 0 12 км 6/3 600 м
[Sc Ac lent Cs]
+35.4 +24.2 52 +47 +53 опасность
перегрева
1003.7 1002.4
12 19.05 ЮВ 3 8000 м мгла {гроза} 8/4 600 м
[Cb cap Ac lent Cs]
+31.0 +22.0 59 +40 +40 очень
душно
1005.0 1003.7 +36.1
15 19.05 штиль 0 8000 м зарница 8/4 600 м
[Cb cap Ac lent Cs]
+28.9 +23.1 71 +39 +39 очень
душно
1007.0 1005.7
18 19.05 штиль 0 7000 м дымка 4/0
[Cs]
+28.4 +24.8 81 +41 +41 опасность
перегрева
1006.6 1005.3
21 19.05 Ю 2 7000 м дымка 4/0
[Cs]
+27.4 +25.5 89 +40 +40 очень
душно
1006.3 1005.0
00 20.05 ЮВ 4 5000 м дымка 6/0
[Ac lent Cs]
+27.8 +24.9 84 +40 +40 очень
душно
1007.5 1006.2 +27.0
03 20.05 штиль 0 10 км 8/3 600 м
[Cu hum Ac lent Cs]
+32.0 +26.4 72 +48 +58 опасность
перегрева
1009.0 1007.7
06 20.05 штиль 0 12 км 6/5 600 м
[Cu med, cong Ac lent Cs]
+35.0 +26.0 60 +51 +64 опасность
перегрева
1006.7 1005.4
09 20.05 штиль 0 12 км 6/4 600 м
[Cu med, cong Ac lent Cs]
+36.0 +23.9 50 +47 +53 опасность
перегрева
1003.9 1002.6
12 20.05 штиль 0 10 км 8/3 600 м
[Cu med, cong Ac lent Cs]
+33.9 +24.5 58 +47 +47 опасность
перегрева
1005.0 1003.7 +36.7
15 20.05 штиль 0 8000 м мгла 5/3 600 м
[Cu med, cong Ac lent Cs]
+29.8 +21.5 61 +38 +38 очень
душно
1008.0 1006.7
18 20.05 штиль 0 8000 м дымка 3/3 600 м
[Cu hum Cs]
+28.1 +24.2 79 +39 +39 очень
душно
1007.1 1005.8
21 20.05 штиль 0 8000 м дымка 3/0
[Cs]
+27.6 +23.8 80 +38 +38 очень
душно
1006.4 1005.1
00 21.05 штиль 0 9000 м дымка 4/3 600 м
[Cu hum Cs]
+27.8 +24.3 81 +39 +40 очень
душно
1007.5 1006.2 +27.2
03 21.05 штиль 0 10 км 5/3 600 м
[Cu med, cong Cs]
+33.3 +26.7 68 +50 +64 опасность
перегрева
1009.0 1007.7
06 21.05 штиль 0 12 км 8/4 600 м
[Cu med, cong Cs]
+35.4 +24.7 54 +48 +63 опасность
перегрева
1006.0 1004.8
09 21.05 штиль 0 8000 м мгла 8/4 600 м
[Cb cap Ac und Cs]
+36.1 +24.4 51 +48 +53 опасность
перегрева
1003.5 1002.3
12 21.05 штиль 0 7000 м в посл. час гроза 10/5 600 м
[Cb cap Ac As Cs]
+26.0 +24.4 91 +36 +36 очень
душно
1007.1 1005.8 +36.6 5
15 21.05 штиль 0 7000 м дымка 8/4 600 м
[Sc Ac As Cs]
+26.5 +25.1 92 +38 +38 очень
душно
1009.2 1007.9
18 21.05 штиль 0 7000 м дымка 8/4 600 м
[Sc Ac und Cs]
+26.9 +24.9 89 +39 +39 очень
душно
1008.4 1007.1
21 21.05 штиль 0 7000 м дымка 5/3 600 м
[Sc Ac lent Cs]
+25.7 +24.7 94 +36 +36 очень
душно
1007.5 1006.2
00 22.05 штиль 0 6000 м дымка 10/4 600 м
[Sc Ac und Cs]
+26.4 +25.1 93 +38 +39 очень
душно
1009.2 1007.8 +25.6
03 22.05 штиль 0 8000 м дымка 9/4 600 м
[Sc Ac und Cs]
+30.9 +26.0 75 +46 +53 опасность
перегрева
1010.9 1009.6
06 22.05 штиль 0 9000 м дымка 8/5 600 м
[Cb cap Ac As Cs]
+32.4 +25.4 67 +47 +57 опасность
перегрева
1008.0 1006.7
09 22.05 штиль 0 8000 м дымка {гроза} 10/5 600 м
[Cb cap Ac As Cs]
+27.0 +23.3 80 +36 +39 очень
душно
1007.9 1006.6 0.0
12 22.05 штиль 0 8000 м дымка {гроза, дождь} 10/5 600 м
[Cu Sc Ac As Cs]
+26.4 +24.4 89 +37 +37 очень
душно
1007.5 1006.2 +33.5 0.0
15 22.05 штиль 0 7000 м дымка 9/3 600 м
[Cu med, cong As trans Cs]
+26.5 +25.1 92 +38 +38 очень
душно
1010.4 1009.1
18 22.05 штиль 0 7000 м дымка 9/3 600 м
[Cu med, cong As trans Cs]
+26.1 +24.5 91 +37 +37 очень
душно
1009.8 1008.5
21 22.05 штиль 0 7000 м дымка 9/3 600 м
[Cu med, cong Ac lent Cs]
+25.8 +24.6 93 +36 +36 очень
душно
1008.9 1007.6
00 23.05 штиль 0 8000 м дымка 6/3 600 м
[Cu hum Ac lent Cs]
+26.0 +24.1 89 +36 +37 очень
душно
1009.9 1008.6 +25.5
03 23.05 штиль 0 10 км 4/1 600 м
[Cu med, cong Cs]
+30.0 +25.0 75 +43 +61 опасность
перегрева
1010.3 1009.0
06 23.05 штиль 0 10 км 8/6 600 м
[Cu Sc Ac lent Cs]
+33.5 +25.4 63 +48 +57 опасность
перегрева
1007.7 1006.4
09 23.05 ЮВ 8 8000 м слабый ливневой дождь, в посл. час гроза 9/5 600 м
[Cu Sc Ac As Cs]
+26.5 +25.1 92 +38 +39 очень
душно
1006.0 1004.7 35
12 23.05 ЮВ 6 8000 м дымка {гроза, дождь} 8/4 600 м
[Sc Ac As Cs]
+27.4 +23.9 81 +38 +38 очень
душно
1006.6 1005.3 +33.9 0.0
15 23.05 штиль 0 8000 м дымка 6/3 600 м
[Sc Ac lent Cs]
+26.6 +24.6 89 +38 +38 очень
душно
1008.6 1007.3
18 23.05 штиль 0 7000 м дымка 5/3 600 м
[Sc Ac lent Cs]
+26.4 +25.0 92 +38 +38 очень
душно
1008.7 1007.3
21 23.05 штиль 0 7000 м дымка 8/3 600 м
[Sc Ac und Cs]
+26.4 +24.8 91 +38 +38 очень
душно
1007.0 1005.7
00 24.05 штиль 0 6000 м в посл. час гроза {дождь} 10/5 600 м
[Sc Ac As Cs]
+25.5 +24.6 95 +36 +36 очень
душно
1009.1 1007.8 +25.3 13
03 24.05 штиль 0 9000 м дымка {дождь} 9/3 600 м
[Sc Ac As Cs]
+28.5 +24.9 81 +41 +49 опасность
перегрева
1010.6 1009.3 0.4
06 24.05 Ю 6 10 км {дождь} 9/6 600 м
[Cu Sc Ac As Cs]
+32.1 +24.1 63 +44 +46 опасность
перегрева
1008.2 1007.0 0.4
09 24.05 ЮВ 4 10 км 9/4 600 м
[Cu med, cong Ac lent Cs]
+33.0 +22.5 54 +42 +44 опасность
перегрева
1006.2 1004.9
12 24.05 штиль 0 8000 м дымка 8/3 600 м
[Sc Ac lent Cs]
+30.5 +23.2 65 +41 +41 опасность
перегрева
1007.4 1006.1 +33.0
15 24.05 штиль 0 8000 м дымка 8/3 600 м
[Sc Ac lent Cs]
+28.0 +23.6 77 +38 +38 очень
душно
1010.0 1008.7
18 24.05 штиль 0 7000 м дымка 9/3 600 м
[Cu med, cong Ac lent Cs]
+26.9 +24.6 87 +38 +38 очень
душно
1009.1 1007.8
21 24.05 штиль 0 7000 м дымка 9/3 600 м
[Cu med, cong Ac lent Cs]
+26.0 +23.8 88 +36 +36 очень
душно
1008.0 1006.7

 

Местоположение метеостанции Lop Buri (Таиланд): широта 14.80 долгота 100.61 высота над уровнем моря 11 м.

В архиве по умолчанию представлена погода в Lop Buri за последнюю неделю. Архивные данные за месяц целиком и за предыдущие месяцы, начиная с января 2011 года, Вы можете получить, выбрав интересующий диапазон дат из раскрывающегося списка и нажав кнопку "Ввод!".


*Определитесь, кто Вы:
робот инопланетянин человек

Внимание! Время в таблицах - всемирное. Для получения местного времени необходимо прибавить поправку, которая в Lop Buri равна 7 ч.

Смотрите также архив погоды в соседних городах и на ближайших метеорологических станциях:

Погода в Ayutthaya (Таиланд) (33 км)
Погода в Laemchabang (Таиланд) (43 км)
Погода в Saraburi (Таиланд) (46 км)
Погода в Chainat Agromet (Таиланд) (60 км)
Погода в Takfa Agromet (Таиланд) (62 км)
Погода в Suphan Buri (Таиланд) (63 км)
Погода в Pathumthani (Таиланд) (78 км)
Погода в Pakchong Agromet (Таиланд) (79 км)
Погода в Bua Chum (Таиланд) (81 км)
Погода в Uthai Thani (Таиланд) (89 км)

Пояснения к столбцам:

Ветер - указаны скорость ветра в м/с - средняя за 10 мин, порывы в срок и между сроками (в фигурных скобках) и направление, откуда дует ветер: С - северный, СВ - северо-восточный, В - восточный, ЮВ - юго-восточный, Ю - южный, ЮЗ - юго-западный, З - западный, СЗ - северо-западный.
Видимость - горизонтальная дальность видимости в метрах или километрах. При видимости от 1 до 10 км при отсутствии осадков обычно наблюдается дымка, при ухудшении видимости до 1 км и менее - туман. В сухую погоду видимость может ухудшаться дымом, пылью или мглою.
Явления - указаны атмосферные явления, наблюдавшиеся в срок или в последний час перед сроком; фигурными скобками обозначены явления, наблюдавшиеся между сроками (за 1-3 часа до срока); квадратными скобками обозначены град или гололедные отложения с указанием их диаметра в мм.
Облачность - указаны через наклонную черту общая и нижняя облачность в баллах и высота нижней границы облаков в метрах; квадратными скобками обозначены формы облаков: Ci - перистые, Cs - перисто-слоистые, Cc - перисто-кучевые, Ac - высококучевые, As - высокослоистые, Sc - слоисто-кучевые, Ns - слоисто-дождевые, Cu - кучевые, Cb - кучево-дождевые. Подробнее классификацию облаков см. в Атласе облаков (PDF).
T - Температура воздуха - температура, измеренная на высоте 2 м над землей.
Td - Температура точки росы - температура, при понижении до которой содержащийся в воздухе водяной пар достигнет насыщения.
f - Относительная влажность воздуха - влажноcть воздуха, измеренная на высоте 2 м над землей.
Te - Эффективная температура - температура, которую ощущает одетый по сезону человек в тени. Характеристика душности погоды. При расчете учитывается влияние влажности воздуха и скорости ветра на теплоощущения человека.
Tes - Эффективная температура на солнце - температура, которую ощущает человек, с поправкой на солнечный нагрев. Характеристика знойности погоды. Зависит от высоты солнца над горизонтом, облачности и скорости ветра. Ночью, в пасмурную погоду, а также при ветре 12 м/с и более поправка равна нулю.
P - Атмосферное давление - приведенное к уровню моря атмосферное давление.
Po - Атмосферное давление - измеренное на уровне метеостанции атмосферное давление.
Tmin - Минимальная температура - минимум температуры воздуха на высоте 2 м над землей.
Tmax - Максимальная температура - максимум температуры воздуха на высоте 2 м над землей.
R - Количество осадков - Количество выпавших осадков за период времени, мм. При наведении курсора мыши на число - период времени, за который выпало указанное количество осадков.
R24 - Количество осадков - Количество выпавших осадков за 24 часа, мм.
S - Снежный покров - Высота снежного покрова, см. При наведении курсора мыши на число - состояние снежного покрова и степень покрытия местности в баллах.